Location: Co-Op City
(40.8739°N, 73.8294°W)
Time: 19:07:52
(UTC+00:00)

Daily predictions for brighter satellites

Satellite Brightness Start Highest point End
(mag) Time Altitude Azimuth Time Altitude Azimuth Time Altitude Azimuth
FengYun 1-2 T 4.4 23:17:10 10° SSE 23:22:48 85° WSW 23:28:30 10° NNW
USA 186 4.0 23:25:03 10° E 23:26:05 11° ENE 23:27:08 10° NE
Cosmos 2237 Rocket 4.0 23:23:22 10° NNE 23:26:12 14° NE 23:29:02 10° ENE
SL-8 R/B 3.9 23:23:24 10° WSW 23:28:10 76° NNW 23:33:00 10° ENE
COSMOS 2455 3.1 23:22:25 10° NNW 23:28:20 55° ENE 23:34:12 10° SE
USA 32 4.1 23:25:33 10° N 23:30:45 61° E 23:35:55 10° SSE
Cosmos 1378 3.4 23:27:08 10° N 23:30:48 48° E 23:34:26 10° SSE
CSL-04 Rocket 3.9 23:27:00 10° SSE 23:32:28 82° WSW 23:38:03 10° NNW
GPS 2-05 Rocket1 4.2 23:30:22 10° WSW 23:32:33 21° S 23:34:43 10° SE
Okean 1 Rocket 3.9 23:30:24 10° SSE 23:34:04 27° E 23:37:46 10° NNE
Cosmos 1939 Rocket 3.1 23:31:00 10° SE 23:34:41 45° ENE 23:38:22 10° N
CSL-04 Debris 4.4 23:29:24 10° S 23:34:47 78° WSW 23:40:13 10° NNW
Okean 2 Rocket 3.6 23:32:46 10° SSW 23:37:12 68° W 23:41:41 10° N
DMSP B5D1-3 4.5 23:34:36 10° NNE 23:39:43 77° ESE 23:44:48 10° S
HJ-1C 4.0 23:37:27 10° SE 23:40:33 35° ENE 23:43:40 10° N
Ariane Rocket 3.0 23:38:05 10° SSE 23:43:03 62° ENE 23:48:04 10° N
GP-B 3.3 23:40:40 10° NNE 23:44:59 49° E 23:49:17 10° SSE
Cosmos 2322 Rocket 4.2 23:40:20 10° NW 23:45:13 31° WSW 23:50:05 10° SSW
Cosmos 1743 4.5 23:43:01 10° SSW 23:46:35 37° WNW 23:50:12 10° N
CZ-2D R/B 3.1 23:45:23 10° SSE 23:49:11 83° ENE 23:52:59 10° N
Aureole 1 Rocket 3.4 23:45:20 10° N 23:50:26 50° ENE 23:54:19 10° SE
